Hourly Data Report for April 27, 2021

CARBERRY CS
MANITOBA
Current Station Operator: ECCC - MSC

49°54'20.900" N
99°21'26.800" W
383.50 m
5010547
71170
WZE

Download Data

Hourly Data (April 2021)
Hourly Data Report for April 27, 2021
TIME
LST
Temp Definition
°C
Dew Point Definition
°C
Rel Hum Definition
%
Precip. Amount Definition
mm

Wind Dir Definition
10's deg

Wind Spd Definition
km/h
Visibility Definition
km
Stn Press Definition
kPa
Hmdx Definition


Wind Chill Definition


Weather Definition


00:00 -0.7 -1.2 96 0.0 17 4   96.26   -2 LegendNANA
01:00 -1.4 -2.3 93 0.0 23 6   96.28   -4 LegendNANA
02:00 -0.3 -1.5 91 0.0 21 7   96.26   -3 LegendNANA
03:00 -1.5 -1.5 100 0.0 19 5   96.29   -3 LegendNANA
04:00 -2.3 -2.3 100 0.0 20 6   96.34   -5 LegendNANA
05:00 0.1 0.1 100 0.0 22 9   96.40     LegendNANA
06:00 -1.2 -1.2 100 0.0 25 4   96.45   -3 LegendNANA
07:00 3.2 1.0 86 0.0 27 5   96.50     LegendNANA
08:00 7.0 2.1 71 0.0 22 7   96.52     LegendNANA
09:00 10.2 2.9 60 0.0 26 12   96.55     LegendNANA
10:00 12.7 4.0 55 0.0 27 8   96.59     LegendNANA
11:00 14.8 0.7 38 0.0 13 5   96.60     LegendNANA
12:00 16.3 -2.9 27 0.0 18 6   96.59     LegendNANA
13:00 16.7 -5.0 22 0.0 23 7   96.59     LegendNANA
14:00 17.9 -4.8 21 0.0 26 11   96.60     LegendNANA
15:00 18.4 -4.8 20 0.0 19 4   96.58     LegendNANA
16:00 18.5 -5.4 19 0.0 4 11   96.57     LegendNANA
17:00 18.6 -5.4 19 0.0 31 11   96.55     LegendNANA
18:00 17.9 -5.9 19 0.0 12 6   96.57     LegendNANA
19:00 16.7 -5.9 21 0.0 17 8   96.60     LegendNANA
20:00 12.5 -4.8 30 0.0 13 10   96.64     LegendNANA
21:00 10.1 -3.2 39 0.0 12 11   96.72     LegendNANA
22:00 7.5 -3.5 46 0.0 1 21   96.83     LegendNANA
23:00 4.8 -5.5 47 0.0 3 21   96.91     LegendNANA

Notes on Data Quality.

Legend

  • E = Estimated
  • M = Missing
  • NA = Not Available*
  • [empty] = Indicates an unobserved value
Date modified: